Orbital Elements at Epoch 2459000.5 (2020-May-31.0) TDB
Reference: JPL 25 (heliocentric ecliptic J2000)
Element | Value | Uncertainty (1-sigma) | Units |
e | .0443809268187831 | 3.1599e-08 | |
a | 2.296708456594939 | 7.9836e-09 | au |
q | 2.194778406658719 | 7.2863e-08 | au |
i | 7.000892152698765 | 3.9817e-06 | deg |
node | 191.7642140496813 | 2.5915e-05 | deg |
peri | 287.0815203219969 | 5.603e-05 | deg |
M | 186.0286502437475 | 5.1717e-05 | deg |
tp | 2459614.873483674090 (2022-Feb-04.37348367) | 0.00018384 | TDB |
period | 1271.326884757492 3.48 | 6.6289e-06 1.815e-08 | d yr |
n | .2831687147626638 | 1.4765e-09 | deg/d |
Q | 2.398638506531159 | 8.3379e-09 | au |
|
| | Orbit Determination Parameters
Additional Information
|